Погода в Безводной

Россия / Республика Адыгея     44°22′33″N   39°54′49″E
темп.,
°C
ветер,
м/с
пор.,
м/с
влажн.,
%
обл.,
%
осадки,
мм/ч
давл.,
гПа
погр.,
м
27 ноября, сб
сб2700:00+3ююв22730 0.0 101915
03:00+3юв227922 0.0 101716
06:00+4юв2273100 0.0 101519
09:00+7юв2258100 0.0 101536
12:00+12юв1250100 0.0 101454
15:00+12ююв2264100 0.0 101419
18:00+10ююв2279100 0.4 101425
21:00+9ююв2376100 0.4 101443
28 ноября, вс
вс2800:00+10ю2373100 0.0 101450
03:00+10ююв2277100 1.0 101325
06:00+10ююв2285100 2.1 101322
09:00+10юв2490100 4.2 101593
12:00+14юв2574100 0.2 1013280
15:00+14вюв127099 0.2 101392
18:00+10юв228093 0.0 101318
21:00+10юв118286 0.0 101412
29 ноября, пн
пн2900:00+11ююв2279100 0.0 101425
03:00+10юв2484100 0.1 101355
06:00+10ююв238217 0.1 101244
09:00+12ююв2476100 0.1 101272
12:00+18ю2105677 0.0 1010554
15:00+19вюв1154100 0.0 100825
18:00+15ююв226596 0.0 100818
21:00+13юв226899 0.0 100630
30 ноября, вт
вт3000:00+13вюв226582 0.0 100415
03:00+13з7158391 0.1 1006823
06:00+12зюз61682100 3.6 10071580
09:00+11ююз61680100 11.4 10081401
12:00+12ююз6146931 0.7 10071196
15:00+10ююз3982100 1.8 1005593
18:00+9вюв1589100 1.6 1002255
21:00+9вюв61288100 11.8 997439
1 декабря, ср
ср100:00+11зюз91987100 9.5 9971746
03:00+9юз71985100 12.1 9991820
06:00+2з101795100 1.1 1007919
09:00+4зсз41084100 1.3 1011651
12:00+7з5970100 0.0 10101007
15:00+7зсз586883 0.0 10101065
18:00+4з3107815 0.0 1012418
21:00+3з27853 0.0 1013270